Location: Asheville, NC
(35.6000°N, 82.5500°W)
Time: 15:35:15
(UTC-04:00)

Vanguard 1 - Pass Details

Date: 10 March 2018
Orbit: 650 x 3833 km, 34.3° (Epoch: 24 June)

Event Time Altitude Azimuth Distance (km) Brightness Sun altitude
Rises 08:06:36 0° 216° (SW) 7,030 14.2 14.9°
Reaches altitude 10° 08:11:10 10° 211° (SSW) 6,320 14.1 15.8°
Maximum altitude 08:31:40 48° 144° (SE) 4,517 14.4 19.7°
Drops below altitude 10° 08:51:38 10° 78° (ENE) 6,235 15.2 23.5°
Sets 08:56:01 0° 73° (ENE) 6,939 15.1 24.3°
